Other Public Products
Issued by NWS Grand Forks, ND

Home | Current Version | Previous Version | Text Only | Print | Product List | Glossary Off
Versions: 1 2 3 4 5 6 7 8 9 10 11 12 13 14 15 16 17 18 19 20 21 22 23 24 25 26 27 28 29 30 31 32 33 34 35 36 37 38 39 40 41 42 43 44 45 46 47 48 49 50

000
FPUS83 KFGF 162031
OPUFGF
PRAIRIE TO PINES WEATHER ROUNDUP
NATIONAL WEATHER SERVICE EASTERN NORTH DAKOTA/GRAND FORKS ND
300 PM CDT WED APR 16 2014

 **SATELLITE DATA USED TO AUGMENT SKY COVER AT AUTOMATED STATIONS**
 *****  WEATHER ACROSS EASTERN NORTH DAKOTA  *****

CITY           SKY/WX    TMP DP  RH WIND       PRES   REMARKS
GRAND FORKS    MOSUNNY   41  10  28 NE18G26   30.11R
GRAND FORKS AF SUNNY     41   7  25 E16G28    30.16R
GRAND CITY NWS   N/A     41 N/A N/A NE24        N/A
BUXTON           N/A     42  18  38 NE14G29     N/A
DEVILS LAKE    SUNNY     36  10  35 NE17G26   30.17R
FARGO          CLOUDY    35  24  64 NE16      30.09R
WAHPETON ARPT  CLOUDY    34  23  64 NE17G26   30.04R WCI  23
$$

 *****  WEATHER ACROSS CENTRAL AND WESTERN NORTH DAKOTA  *****

CITY           SKY/WX    TMP DP  RH WIND       PRES   REMARKS
JAMESTOWN      CLOUDY    35  19  52 NE17      30.09R WCI  25
BISMARCK       CLOUDY    33  20  58 NE15      30.14R WCI  23
MINOT          CLOUDY    32  17  54 NE10      30.19R WCI  24
MINOT AFB      MOSUNNY   31  19  60 E12       30.20R WCI  22
GARRISON         N/A     28  19  69 E12       30.16R WCI  18
WILLISTON      CLOUDY    28  22  78 E14       30.18R WCI  17
DICKINSON      CLOUDY    29  21  72 NE9       30.09R WCI  20
HETTINGER      CLOUDY    31  22  69 NE13      30.08R WCI  21
$$

 *****  OTHER OBSERVATIONS NORTHEAST NORTH DAKOTA  *****

CITY           SKY/WX    TMP DP  RH WIND       PRES   REMARKS
WALHALLA         N/A     36   9  32 NE16G23   30.25R
LANGDON        FAIR      36  10  35 NE17G26   30.19R
CAVALIER       FAIR      37  10  32 NE16G23   30.23R
GRAFTON        FAIR      37  10  32 NE17G25   30.20S
CANDO          MOCLDY    37   9  30 NE14G22   30.19R
FORT TOTTEN      N/A     37   9  31 NE8       29.95S
ROLLA          FAIR      32  14  47 NE17G25   30.21R WCI  21
RUGBY          FAIR      34  16  47 NE21G26   30.18R WCI  22
 ***** THE ABOVE OBSERVATIONS ARE NON NWS ARE NOT QUALITY
        CONTROLLED AND MAY MIS-REPORT RAIN FOR SNOW...
$$

 *****  OTHER OBSERVATIONS SOUTHEAST NORTH DAKOTA *****

CITY           SKY/WX    TMP DP  RH WIND       PRES   REMARKS
COOPERSTOWN    FAIR      36  18  48 NE21G26   30.11R
VALLEY CITY    NOT AVBL
OAKES          CLOUDY    32  23  69 N20G28    30.06R WCI  20
GWINNER        CLOUDY    34  27  75 N22       30.07R WCI  22
BUFFALO          N/A     36  17  46 E20         N/A
WYNDMERE       NOT AVBL
 ***** THE ABOVE OBSERVATIONS ARE NON NWS ARE NOT QUALITY
       CONTROLLED AND MAY MIS-REPORT RAIN FOR SNOW...
$$

  *****  WEATHER ACROSS NORTHERN MINNESOTA  *****

CITY           SKY/WX    TMP DP  RH WIND       PRES   REMARKS
FLAG ISLAND    SUNNY     30   7  37 N15       30.22S WCI  19
WARROAD        SUNNY     34  12  40 NE13G21   30.22S WCI  25
ROSEAU         SUNNY     36   9  32 NE16      30.21S
HALLOCK        CLOUDY    37   9  30 E13       30.21S
THF RVR FALLS  MOSUNNY   39   9  28 NE16      30.15R
HALSTAD          N/A     39  19  46 E18         N/A
FOSSTON        CLOUDY    39  16  38 E13G21    30.11R
BAUDETTE       MOSUNNY   36   5  27 NE8       30.18S
WASKISH        PTSUNNY   39   9  28 NE16      30.14R
CROOKSTON      PTSUNNY   39  10  30 E14G23    30.15R
$$
  *****  WEATHER ACROSS CENTRAL AND WEST MINNESOTA  *****

CITY           SKY/WX    TMP DP  RH WIND       PRES   REMARKS
BEMIDJI        CLOUDY    35  14  42 E17       30.10R WCI  24
PARK RAPIDS    CLOUDY    29  21  72 NE17G25   30.06R WCI  17
WADENA         LGT SNOW  28  23  80 NE14G21   30.02R WCI  17
DETROIT LAKES  CLOUDY    32  23  69 NE20G25   30.06R WCI  20
MOORHEAD       CLOUDY    36  27  69 NE17      30.09R
FERGUS FALLS   CLOUDY    30  21  69 E21G30    30.00R WCI  17
ELBOW LAKE     LGT SNOW  30  26  84 NE16G23   29.99R WCI  19
MORRIS MN      LGT SNOW  30  27  86 NE20G25   29.94R WCI  18
STAPLES        LGT SNOW  27  25  93 NE14G21   30.02R VSB 1   WCI  15
WHEATON        CLOUDY    34  28  80 NE16G25   30.02R WCI  23
$$
  *****  WEATHER ELSEWHERE ACROSS MINNESOTA  *****

CITY           SKY/WX    TMP DP  RH WIND       PRES   REMARKS
DULUTH         SNOW      26  22  84 E22G31    30.10R VSB 1/2 WCI  12
INTRNTL FALLS  MOSUNNY   35   4  27 E9        30.18R
ELY            CLOUDY    30   7  37 E12       30.16S WCI  21
CLOQUET        SNOW      27  25  93 E21G28    30.08S VSB 1/4 WCI  13
BRAINERD       SNOW      32  25  75 NE15G23   30.03S VSB 1/2 WCI  22
HIBBING        LGT SNOW  28  22  78 E12       30.14S WCI  18
ALEXANDRIA     LGT SNOW  28  25  86 NE17G25   29.96R VSB 1   WCI  16
SAINT CLOUD    SNOW      29  26  89 NE14G21   29.94S VSB 1/4 WCI  18
MINNEAPOLIS    CLOUDY    37  29  72 NE13      29.89S
$$

  *****  WEATHER ACROSS SOUTH DAKOTA  *****

CITY           SKY/WX    TMP DP  RH WIND       PRES   REMARKS
SIOUX FALLS    LGT RAIN  36  34  92 N20G26    29.75R FOG
BROOKINGS      NOT AVBL
WATERTOWN      LGT SNOW  28  24  85 NE23G32   29.88R FOG     WCI  14
HURON          CLOUDY    33  26  75 N20G32    29.93R WCI  21
SISSETON         N/A     31  26  82 NE20G29   29.99R WCI  19
ABERDEEN       CLOUDY    31  24  75 NE17G29   30.02R WCI  19
MITCHELL       CLOUDY    34  29  82 N24G30    29.88R WCI  21
PIERRE         CLOUDY    34  26  72 N17       30.01R WCI  23
MOBRIDGE       CLOUDY    36  24  62 NE15      30.03R
RAPID CITY     PTSUNNY   44  28  53 N16G24    29.99R
$$

  *****  SOME WEATHER IN NEARBY STATES *****

CITY           SKY/WX    TMP DP  RH WIND       PRES   REMARKS
GLASGOW MT     CLOUDY    36  21  54 SE9       30.11R
GREAT FALLS MT PTSUNNY   44  29  55 VRB3      29.97S
CHEYENNE WY    MOSUNNY   39  30  70 N15G21    29.96S
SCOTTSBLUFF NE PTSUNNY   53  20  27 NW25G33   29.95R
OMAHA NE       MOSUNNY   67  25  20 SW25G39   29.69S
DES MOINES IA  CLOUDY    63  31  30 S22G37    29.78F
DAVENPORT IA   MOSUNNY   57  28  33 S30G37    30.03F
CHICAGO IL     PTSUNNY   51  25  36 SE24G32   30.19F
EAU CLAIRE WI  CLOUDY    47  27  45 E21G28    29.93F
LA CROSSE WI   CLOUDY    54  27  35 S23G33    29.91F
$$

  *****  SOME NATIONAL WEATHER *****

CITY           SKY/WX    TMP DP  RH WIND       PRES   REMARKS
LA GUARDIA NY  SUNNY     46  17  31 N15G22    30.40S
RALEIGH NC     SUNNY     53  24  32 N6G18     30.36F
ATLANTA GA     SUNNY     59  27  29 VRB6      30.23F
NEW ORLEANS LA MOSUNNY   62  45  53 NE10      30.16F
OKLAHOMA CITY  MOSUNNY   69  27  20 S24G32    29.90F
ALBUQUERQUE NM PTSUNNY   70   6   8 VRB5      29.85F
SALT LAKE CITY MOSUNNY   55  17  22 VRB3      30.01F
LOS ANGELES CA MOSUNNY   65  52  62 W13       29.84F
BOISE ID       SUNNY     57  18  21 VRB6      30.04F
SEATTLE WA     LGT RAIN  50  47  89 S12       30.07S
$$

*** WEATHER ACROSS MANITOBA...SASKATCHEWAN AND ONTARIO ***
                ***ONTARIO***

CITY           SKY/WX    TMP DP  RH WIND       PRES   REMARKS
GERALDTON      MOSUNNY   30   3  31 W12       30.25S WCI  21
THUNDER BAY    CLOUDY    30  14  51 E13       30.30R WCI  20
SIOUX LOOKOUT  MOSUNNY   28  -2  26 NW5       30.25S WCI  23
TORONTO        PTSUNNY   37  16  41 VRB6      30.46S
BIG TROUT LK   SUNNY     14   0  52 W13G20    30.31R WCI   0
PICKLE LAKE    MOSUNNY   27   1  33 NW8       30.26S WCI  18
DRYDEN         SUNNY     32   0  25 NE10      30.22S WCI  24
KENORA         MOSUNNY   32   5  32 NE9       30.23S WCI  24
$$
                *** MANITOBA***

CITY           SKY/WX    TMP DP  RH WIND       PRES   REMARKS
BRANDON        PTSUNNY   28   7  40 E17G23    30.31R WCI  16
DAUPHIN        SUNNY     28   5  37 E13G18    30.37R WCI  18
ISLAND LAKE    MOSUNNY   23   7  50 N7        30.37S WCI  15
PILOT MOUND      N/A     30   7  37 NE17G23     N/A  WCI  18
THE PAS        SUNNY     23   3  42 NE6       30.43F WCI  16
THOMPSON       SUNNY     21   7  53 N7        30.41S WCI  13
WINNIPEG       MOSUNNY   32  10  40 NE15G24   30.31R WCI  22
LYNN LAKE      SUNNY     21   1  42 W8        30.41F WCI  12
CHURCHILL      MOSUNNY   14   3  62 NW18      30.29S WCI  -3
GILLAM         MOSUNNY   18   1  49 W14       30.37R WCI   4
$$
                ***SASKATCHEWAN***

CITY           SKY/WX    TMP DP  RH WIND       PRES   REMARKS
ESTEVAN        LGT SNOW  27  21  80 E14       30.23R WCI  15
KINDERSLEY     FLURRIES  28  23  80 E16       30.15R WCI  17
LLOYDMINSTER   FLURRIES  28  19  69 SE15G21   30.18F WCI  17
PRINCE ALBERT  MOSUNNY   28  10  47 SE13      30.35S WCI  18
REGINA         FLURRIES  30  19  64 SE13G20   30.25R WCI  20
YORKTON        SUNNY     28   7  40 E8G17     30.31R WCI  20



USA.gov is the U.S. government's official web portal to all federal, state and local government web resources and services.